Time,TemperatureF,DewpointF,PressureIn,WindDirection,WindDirectionDegrees,WindSpeedMPH,WindSpeedGustMPH,Humidity,HourlyPrecipIn,Conditions,Clouds,dailyrainin,SoftwareType,DateUTC
2013-01-01 00:04:00,-3.8,-19.8,30.23,NW,321,0.0,0.0,45,0.00,,SKC,0.00,VWS V14.01,2013-01-01 06:04:00,
2013-01-01 00:09:00,-4.0,-20.0,30.23,NW,321,0.0,4.0,45,0.00,,SKC,0.00,VWS V14.01,2013-01-01 06:09:00,
2013-01-01 00:14:00,-4.0,-20.0,30.23,NW,321,0.0,0.0,45,0.00,,SKC,0.00,VWS V14.01,2013-01-01 06:14:00,
2013-01-01 00:19:00,-4.2,-20.1,30.23,NW,321,0.0,0.0,45,0.00,,SKC,0.00,VWS V14.01,2013-01-01 06:19:00,
2013-01-01 00:24:00,-4.4,-20.3,30.23,NW,321,0.0,0.0,45,0.00,,SKC,0.00,VWS V14.01,2013-01-01 06:24:00,
2013-01-01 00:29:00,-4.4,-20.3,30.23,NW,321,0.0,4.0,45,0.00,,SKC,0.00,VWS V14.01,2013-01-01 06:29:00,
2013-01-01 00:34:00,-4.5,-20.5,30.23,NW,321,0.0,0.0,45,0.00,,SKC,0.00,VWS V14.01,2013-01-01 06:34:00,
2013-01-01 00:39:00,-4.7,-20.6,30.23,NW,321,0.0,0.0,45,0.00,,SKC,0.00,VWS V14.01,2013-01-01 06:39:00,
2013-01-01 00:44:00,-4.7,-20.6,30.23,NW,321,0.0,0.0,45,0.00,,SKC,0.00,VWS V14.01,2013-01-01 06:44:00,
2013-01-01 00:49:00,-4.7,-20.6,30.23,NW,321,0.0,0.0,45,0.00,,SKC,0.00,VWS V14.01,2013-01-01 06:49:00,
2013-01-01 00:54:00,-4.9,-20.8,30.23,NW,321,0.0,0.0,45,0.00,,SKC,0.00,VWS V14.01,2013-01-01 06:54:00,
2013-01-01 00:59:00,-5.1,-21.0,30.23,NW,321,0.0,0.0,45,0.00,,SKC,0.00,VWS V14.01,2013-01-01 06:59:00,
2013-01-01 01:05:00,-5.1,-21.0,30.23,NW,321,0.0,0.0,45,0.00,,SKC,0.00,VWS V14.01,2013-01-01 07:05:00,
2013-01-01 01:10:00,-5.1,-21.0,30.23,NW,321,0.0,0.0,45,0.00,,SKC,0.00,VWS V14.01,2013-01-01 07:10:00,
2013-01-01 01:15:00,-6.2,-22.0,30.23,NW,321,0.0,0.0,45,0.00,,SKC,0.00,VWS V14.01,2013-01-01 07:15:00,
2013-01-01 01:20:00,-6.3,-22.1,30.23,NW,321,0.0,0.0,45,0.00,,SKC,0.00,VWS V14.01,2013-01-01 07:20:00,
2013-01-01 01:25:00,-6.5,-22.3,30.23,NW,321,0.0,0.0,45,0.00,,SKC,0.00,VWS V14.01,2013-01-01 07:25:00,
2013-01-01 01:30:00,-7.1,-22.8,30.23,NW,321,0.0,0.0,45,0.00,,SKC,0.00,VWS V14.01,2013-01-01 07:30:00,
2013-01-01 01:35:00,-7.4,-23.1,30.23,NW,321,0.0,0.0,45,0.00,,SKC,0.00,VWS V14.01,2013-01-01 07:35:00,
2013-01-01 01:40:00,-7.6,-23.3,30.23,NW,321,0.0,0.0,45,0.00,,SKC,0.00,VWS V14.01,2013-01-01 07:40:00,
2013-01-01 01:45:00,-7.4,-23.1,30.23,NW,321,0.0,0.0,45,0.00,,SKC,0.00,VWS V14.01,2013-01-01 07:45:00,
2013-01-01 01:50:00,-6.9,-22.6,30.23,NW,321,0.0,0.0,45,0.00,,SKC,0.00,VWS V14.01,2013-01-01 07:50:00,
2013-01-01 01:55:00,-6.9,-22.6,30.23,NW,320,0.0,0.0,45,0.00,,SKC,0.00,VWS V14.01,2013-01-01 07:55:00,
2013-01-01 02:00:00,-6.9,-22.6,30.23,NW,321,0.0,0.0,45,0.00,,SKC,0.00,VWS V14.01,2013-01-01 08:00:00,
2013-01-01 02:05:00,-6.7,-22.5,30.23,NW,322,4.0,4.0,45,0.00,,SKC,0.00,VWS V14.01,2013-01-01 08:05:00,
2013-01-01 02:10:00,-6.3,-22.1,30.23,NW,321,0.0,4.0,45,0.00,,SKC,0.00,VWS V14.01,2013-01-01 08:10:00,
2013-01-01 02:15:00,-6.2,-22.0,30.23,NW,321,0.0,0.0,45,0.00,,SKC,0.00,VWS V14.01,2013-01-01 08:15:00,
2013-01-01 02:20:00,-6.0,-21.8,30.26,NW,321,4.8,4.8,45,0.00,,SKC,0.00,VWS V14.01,2013-01-01 08:20:00,
2013-01-01 02:25:00,-5.8,-21.6,30.26,NW,321,4.8,5.6,45,0.00,,SKC,0.00,VWS V14.01,2013-01-01 08:25:00,
2013-01-01 02:30:00,-5.8,-21.6,30.26,NW,323,4.0,4.0,45,0.00,,SKC,0.00,VWS V14.01,2013-01-01 08:30:00,
2013-01-01 02:35:00,-5.8,-21.6,30.26,NW,321,4.8,4.8,45,0.00,,SKC,0.00,VWS V14.01,2013-01-01 08:35:00,
2013-01-01 02:40:00,-5.8,-21.6,30.26,NW,321,4.0,5.6,45,0.00,,SKC,0.00,VWS V14.01,2013-01-01 08:40:00,
2013-01-01 02:45:00,-6.0,-21.8,30.26,NW,321,4.8,4.8,45,0.00,,SKC,0.00,VWS V14.01,2013-01-01 08:45:00,
2013-01-01 02:50:00,-6.2,-22.0,30.26,NW,321,4.8,4.8,45,0.00,,SKC,0.00,VWS V14.01,2013-01-01 08:50:00,
2013-01-01 02:55:00,-5.8,-21.6,30.26,NW,321,4.8,4.8,45,0.00,,SKC,0.00,VWS V14.01,2013-01-01 08:55:00,
2013-01-01 03:00:00,-6.0,-21.8,30.26,NW,321,4.0,4.8,45,0.00,,SKC,0.00,VWS V14.01,2013-01-01 09:00:00,
2013-01-01 03:05:00,-5.8,-21.6,30.26,NW,321,5.6,6.4,45,0.00,,SKC,0.00,VWS V14.01,2013-01-01 09:05:00,
2013-01-01 03:10:00,-6.0,-21.8,30.26,NW,321,4.8,4.8,45,0.00,,SKC,0.00,VWS V14.01,2013-01-01 09:10:00,
2013-01-01 03:15:00,-6.2,-22.0,30.26,NW,321,4.8,5.6,45,0.00,,SKC,0.00,VWS V14.01,2013-01-01 09:15:00,
2013-01-01 03:20:00,-6.3,-22.1,30.26,NW,321,0.0,4.8,45,0.00,,SKC,0.00,VWS V14.01,2013-01-01 09:20:00,
2013-01-01 03:25:00,-6.3,-22.1,30.26,NW,321,0.0,0.0,45,0.00,,SKC,0.00,VWS V14.01,2013-01-01 09:25:00,
2013-01-01 03:30:00,-6.5,-22.3,30.26,NW,321,0.0,0.0,45,0.00,,SKC,0.00,VWS V14.01,2013-01-01 09:30:00,
2013-01-01 03:35:00,-6.3,-22.1,30.26,NW,321,4.0,5.6,45,0.00,,SKC,0.00,VWS V14.01,2013-01-01 09:35:00,
2013-01-01 03:40:00,-6.3,-22.1,30.26,NW,321,0.0,0.0,45,0.00,,SKC,0.00,VWS V14.01,2013-01-01 09:40:00,
2013-01-01 03:45:00,-6.5,-22.3,30.26,NW,321,0.0,0.0,45,0.00,,SKC,0.00,VWS V14.01,2013-01-01 09:45:00,
2013-01-01 03:50:00,-6.7,-22.5,30.26,NW,321,0.0,0.0,45,0.00,,SKC,0.00,VWS V14.01,2013-01-01 09:50:00,
2013-01-01 03:55:00,-6.9,-22.6,30.26,NW,321,0.0,0.0,45,0.00,,SKC,0.00,VWS V14.01,2013-01-01 09:55:00,
2013-01-01 04:00:00,-6.5,-22.3,30.26,NW,321,0.0,0.0,45,0.00,,SKC,0.00,VWS V14.01,2013-01-01 10:00:00,
2013-01-01 04:05:00,-6.7,-22.5,30.26,NW,321,0.0,0.0,45,0.00,,SKC,0.00,VWS V14.01,2013-01-01 10:05:00,
2013-01-01 04:10:00,-7.1,-22.8,30.26,NW,321,0.0,0.0,45,0.00,,SKC,0.00,VWS V14.01,2013-01-01 10:10:00,
2013-01-01 04:15:00,-7.2,-23.0,30.26,NW,321,0.0,0.0,45,0.00,,SKC,0.00,VWS V14.01,2013-01-01 10:15:00,
2013-01-01 04:20:00,-7.4,-23.1,30.26,NW,321,0.0,0.0,45,0.00,,SKC,0.00,VWS V14.01,2013-01-01 10:20:00,
2013-01-01 04:25:00,-7.2,-23.0,30.26,NW,321,0.0,0.0,45,0.00,,SKC,0.00,VWS V14.01,2013-01-01 10:25:00,
2013-01-01 04:30:00,-7.1,-22.8,30.26,NW,321,0.0,0.0,45,0.00,,SKC,0.00,VWS V14.01,2013-01-01 10:30:00,
2013-01-01 04:35:00,-7.1,-22.8,30.26,NW,321,0.0,0.0,45,0.00,,SKC,0.00,VWS V14.01,2013-01-01 10:35:00,
2013-01-01 04:40:00,-6.9,-22.6,30.26,NW,320,0.0,0.0,45,0.00,,SKC,0.00,VWS V14.01,2013-01-01 10:40:00,
2013-01-01 04:45:00,-7.1,-22.8,30.26,NW,321,0.0,0.0,45,0.00,,SKC,0.00,VWS V14.01,2013-01-01 10:45:00,
2013-01-01 04:50:00,-7.4,-23.1,30.26,NW,322,0.0,0.0,45,0.00,,SKC,0.00,VWS V14.01,2013-01-01 10:50:00,
2013-01-01 04:55:00,-7.4,-23.1,30.26,NW,321,0.0,0.0,45,0.00,,SKC,0.00,VWS V14.01,2013-01-01 10:55:00,
2013-01-01 05:01:00,-7.4,-23.1,30.26,NW,321,0.0,0.0,45,0.00,,SKC,0.00,VWS V14.01,2013-01-01 11:01:00,
2013-01-01 05:06:00,-7.4,-23.1,30.26,NW,322,0.0,0.0,45,0.00,,SKC,0.00,VWS V14.01,2013-01-01 11:06:00,
2013-01-01 05:11:00,-7.6,-23.3,30.26,NW,321,0.0,0.0,45,0.00,,SKC,0.00,VWS V14.01,2013-01-01 11:11:00,
2013-01-01 05:16:00,-7.8,-23.5,30.26,NW,321,0.0,0.0,45,0.00,,SKC,0.00,VWS V14.01,2013-01-01 11:16:00,
2013-01-01 05:21:00,-8.0,-23.6,30.26,NW,321,0.0,0.0,45,0.00,,SKC,0.00,VWS V14.01,2013-01-01 11:21:00,
2013-01-01 05:26:00,-8.0,-23.6,30.26,NW,321,0.0,0.0,45,0.00,,SKC,0.00,VWS V14.01,2013-01-01 11:26:00,
2013-01-01 05:31:00,-8.0,-23.6,30.26,NW,321,0.0,0.0,45,0.00,,SKC,0.00,VWS V14.01,2013-01-01 11:31:00,
2013-01-01 05:36:00,-8.0,-23.6,30.26,NW,321,0.0,0.0,45,0.00,,SKC,0.00,VWS V14.01,2013-01-01 11:36:00,
2013-01-01 05:41:00,-8.0,-23.6,30.26,NW,321,0.0,0.0,45,0.00,,SKC,0.00,VWS V14.01,2013-01-01 11:41:00,
2013-01-01 05:46:00,-7.8,-23.5,30.26,NW,321,0.0,0.0,45,0.00,,SKC,0.00,VWS V14.01,2013-01-01 11:46:00,
2013-01-01 05:51:00,-7.8,-23.5,30.26,NW,321,0.0,0.0,45,0.00,,SKC,0.00,VWS V14.01,2013-01-01 11:51:00,
2013-01-01 05:56:00,-8.0,-23.6,30.26,NW,321,0.0,0.0,45,0.00,,SKC,0.00,VWS V14.01,2013-01-01 11:56:00,
2013-01-01 06:01:00,-8.0,-23.6,30.26,NW,321,0.0,0.0,45,0.00,,SKC,0.00,VWS V14.01,2013-01-01 12:01:00,
2013-01-01 06:06:00,-8.1,-23.8,30.26,NW,321,0.0,0.0,45,0.00,,SKC,0.00,VWS V14.01,2013-01-01 12:06:00,
2013-01-01 06:11:00,-8.3,-24.0,30.26,NW,321,0.0,0.0,45,0.00,,SKC,0.00,VWS V14.01,2013-01-01 12:11:00,
2013-01-01 06:16:00,-8.7,-24.3,30.26,NW,321,0.0,0.0,45,0.00,,SKC,0.00,VWS V14.01,2013-01-01 12:16:00,
2013-01-01 06:21:00,-8.9,-24.5,30.26,NW,321,0.0,0.0,45,0.00,,SKC,0.00,VWS V14.01,2013-01-01 12:21:00,
2013-01-01 06:26:00,-9.0,-24.6,30.26,NW,321,0.0,0.0,45,0.00,,SKC,0.00,VWS V14.01,2013-01-01 12:26:00,
2013-01-01 06:31:00,-9.2,-24.8,30.26,NW,321,0.0,0.0,45,0.00,,SKC,0.00,VWS V14.01,2013-01-01 12:31:00,
2013-01-01 06:36:00,-9.4,-25.0,30.26,NW,321,0.0,0.0,45,0.00,,SKC,0.00,VWS V14.01,2013-01-01 12:36:00,
2013-01-01 06:41:00,-9.6,-25.1,30.26,NW,321,0.0,0.0,45,0.00,,SKC,0.00,VWS V14.01,2013-01-01 12:41:00,
2013-01-01 06:46:00,-9.6,-25.1,30.26,NW,321,0.0,0.0,45,0.00,,SKC,0.00,VWS V14.01,2013-01-01 12:46:00,
2013-01-01 06:58:00,-9.8,-25.3,30.26,NW,321,0.0,0.0,45,0.00,,SKC,0.00,VWS V14.01,2013-01-01 12:58:00,
2013-01-01 07:03:00,-9.9,-25.5,30.26,NW,321,0.0,0.0,45,0.00,,SKC,0.00,VWS V14.01,2013-01-01 13:03:00,
2013-01-01 07:09:00,-9.9,-25.5,30.26,NW,321,0.0,0.0,45,0.00,,SKC,0.00,VWS V14.01,2013-01-01 13:09:00,
2013-01-01 07:14:00,-10.1,-25.6,30.26,NW,321,0.0,0.0,45,0.00,,SKC,0.00,VWS V14.01,2013-01-01 13:14:00,
2013-01-01 07:20:00,-10.5,-26.0,30.26,NW,321,0.0,0.0,45,0.00,,SKC,0.00,VWS V14.01,2013-01-01 13:20:00,
2013-01-01 07:25:00,-10.7,-26.1,30.26,NW,321,0.0,0.0,45,0.00,,SKC,0.00,VWS V14.01,2013-01-01 13:25:00,
2013-01-01 07:31:00,-11.2,-26.6,30.26,NW,321,0.0,0.0,45,0.00,,SKC,0.00,VWS V14.01,2013-01-01 13:31:00,
2013-01-01 07:36:00,-11.2,-26.6,30.26,NW,321,0.0,0.0,45,0.00,,SKC,0.00,VWS V14.01,2013-01-01 13:36:00,
2013-01-01 07:41:00,-11.2,-26.6,30.26,NW,321,0.0,0.0,45,0.00,,SKC,0.00,VWS V14.01,2013-01-01 13:41:00,
2013-01-01 07:46:00,-11.2,-26.6,30.26,NW,321,0.0,0.0,45,0.00,,SKC,0.00,VWS V14.01,2013-01-01 13:46:00,
2013-01-01 07:51:00,-11.2,-26.6,30.26,NW,321,0.0,0.0,45,0.00,,SKC,0.00,VWS V14.01,2013-01-01 13:51:00,
2013-01-01 07:56:00,-11.4,-26.8,30.26,NW,321,0.0,0.0,45,0.00,,SKC,0.00,VWS V14.01,2013-01-01 13:56:00,
2013-01-01 08:01:00,-11.4,-26.8,30.26,NW,321,0.0,0.0,45,0.00,,SKC,0.00,VWS V14.01,2013-01-01 14:01:00,
2013-01-01 08:06:00,-11.6,-26.9,30.26,NW,321,0.0,0.0,45,0.00,,SKC,0.00,VWS V14.01,2013-01-01 14:06:00,
2013-01-01 08:11:00,-11.6,-26.9,30.26,NW,321,0.0,0.0,45,0.00,,SKC,0.00,VWS V14.01,2013-01-01 14:11:00,
2013-01-01 08:16:00,-11.2,-26.6,30.26,NW,321,0.0,0.0,45,0.00,,SKC,0.00,VWS V14.01,2013-01-01 14:16:00,
2013-01-01 08:21:00,-11.2,-26.6,30.26,NW,321,0.0,0.0,45,0.00,,SKC,0.00,VWS V14.01,2013-01-01 14:21:00,
2013-01-01 08:26:00,-10.8,-26.3,30.26,NW,321,0.0,0.0,45,0.00,,SKC,0.00,VWS V14.01,2013-01-01 14:26:00,
2013-01-01 08:31:00,-10.5,-26.0,30.26,NW,321,0.0,0.0,45,0.00,,SKC,0.00,VWS V14.01,2013-01-01 14:31:00,
2013-01-01 08:36:00,-9.9,-25.5,30.26,NW,321,0.0,0.0,45,0.00,,SKC,0.00,VWS V14.01,2013-01-01 14:36:00,
2013-01-01 08:41:00,-9.6,-25.1,30.26,NW,321,0.0,0.0,45,0.00,,SKC,0.00,VWS V14.01,2013-01-01 14:41:00,
2013-01-01 08:46:00,-8.7,-24.3,30.26,NW,321,0.0,0.0,45,0.00,,SKC,0.00,VWS V14.01,2013-01-01 14:46:00,
2013-01-01 08:51:00,-8.0,-23.6,30.26,NW,321,0.0,0.0,45,0.00,,SKC,0.00,VWS V14.01,2013-01-01 14:51:00,
2013-01-01 08:56:00,-7.4,-23.1,30.26,NW,321,0.0,0.0,45,0.00,,SKC,0.00,VWS V14.01,2013-01-01 14:56:00,
2013-01-01 09:01:00,-6.5,-22.3,30.26,NW,321,0.0,0.0,45,0.00,,SKC,0.00,VWS V14.01,2013-01-01 15:01:00,
2013-01-01 09:06:00,-6.0,-21.8,30.26,NW,321,0.0,0.0,45,0.00,,SKC,0.00,VWS V14.01,2013-01-01 15:06:00,
2013-01-01 09:11:00,-5.1,-21.0,30.26,NW,321,0.0,0.0,45,0.00,,SKC,0.00,VWS V14.01,2013-01-01 15:11:00,
2013-01-01 09:16:00,-4.7,-20.6,30.26,NW,321,0.0,0.0,45,0.00,,SKC,0.00,VWS V14.01,2013-01-01 15:16:00,
2013-01-01 09:21:00,-4.5,-20.5,30.26,NW,321,4.8,4.8,45,0.00,,SKC,0.00,VWS V14.01,2013-01-01 15:21:00,
2013-01-01 09:26:00,-4.4,-20.3,30.26,NW,321,0.0,0.0,45,0.00,,SKC,0.00,VWS V14.01,2013-01-01 15:26:00,
2013-01-01 09:31:00,-4.2,-20.1,30.26,NW,321,0.0,0.0,45,0.00,,SKC,0.00,VWS V14.01,2013-01-01 15:31:00,
2013-01-01 09:36:00,-3.8,-19.8,30.26,NW,321,0.0,0.0,45,0.00,,SKC,0.00,VWS V14.01,2013-01-01 15:36:00,
2013-01-01 09:41:00,-2.9,-19.0,30.26,NW,321,0.0,0.0,45,0.00,,SKC,0.00,VWS V14.01,2013-01-01 15:41:00,
2013-01-01 09:46:00,-2.2,-18.3,30.26,NW,321,0.0,0.0,45,0.00,,SKC,0.00,VWS V14.01,2013-01-01 15:46:00,
2013-01-01 09:51:00,-1.3,-17.5,30.26,NW,321,0.0,0.0,45,0.00,,SKC,0.00,VWS V14.01,2013-01-01 15:51:00,
2013-01-01 09:56:00,-0.6,-16.8,30.26,NW,321,0.0,0.0,45,0.00,,SKC,0.00,VWS V14.01,2013-01-01 15:56:00,
2013-01-01 10:02:00,-0.2,-16.5,30.26,NW,321,0.0,0.0,45,0.00,,SKC,0.00,VWS V14.01,2013-01-01 16:02:00,
2013-01-01 10:07:00,0.7,-15.7,30.26,NW,321,0.0,0.0,45,0.00,,SKC,0.00,VWS V14.01,2013-01-01 16:07:00,
2013-01-01 10:12:00,1.2,-15.2,30.26,NW,321,0.0,0.0,45,0.00,,SKC,0.00,VWS V14.01,2013-01-01 16:12:00,
2013-01-01 10:17:00,1.9,-14.5,30.26,NW,321,0.0,0.0,45,0.00,,SKC,0.00,VWS V14.01,2013-01-01 16:17:00,
2013-01-01 10:22:00,3.0,-13.5,30.26,NW,321,0.0,0.0,45,0.00,,SKC,0.00,VWS V14.01,2013-01-01 16:22:00,
2013-01-01 10:27:00,5.0,-11.7,30.26,NW,321,0.0,0.0,45,0.00,,SKC,0.00,VWS V14.01,2013-01-01 16:27:00,
2013-01-01 10:32:00,5.9,-10.9,30.26,NW,321,0.0,0.0,45,0.00,,SKC,0.00,VWS V14.01,2013-01-01 16:32:00,
2013-01-01 10:37:00,7.0,-9.9,30.26,NW,321,0.0,0.0,45,0.00,,SKC,0.00,VWS V14.01,2013-01-01 16:37:00,
2013-01-01 10:42:00,7.9,-9.0,30.26,NW,321,0.0,0.0,45,0.00,,SKC,0.00,VWS V14.01,2013-01-01 16:42:00,
2013-01-01 10:47:00,9.1,-7.9,30.26,NW,321,0.0,0.0,45,0.00,,SKC,0.00,VWS V14.01,2013-01-01 16:47:00,
2013-01-01 10:52:00,10.2,-6.9,30.26,SW,232,4.0,4.8,45,0.00,,SKC,0.00,VWS V14.01,2013-01-01 16:52:00,
2013-01-01 10:57:00,11.1,-6.1,30.26,SW,232,6.4,6.4,45,0.00,,SKC,0.00,VWS V14.01,2013-01-01 16:57:00,
2013-01-01 11:02:00,11.7,-5.6,30.26,WSW,237,5.6,7.2,45,0.00,,SKC,0.00,VWS V14.01,2013-01-01 17:02:00,
2013-01-01 11:07:00,11.5,-5.7,30.26,WSW,243,5.6,6.4,45,0.00,,SKC,0.00,VWS V14.01,2013-01-01 17:07:00,
2013-01-01 11:12:00,11.7,-5.6,30.26,WSW,249,4.8,7.2,45,0.00,,SKC,0.00,VWS V14.01,2013-01-01 17:12:00,
2013-01-01 11:17:00,12.2,-5.1,30.26,WSW,238,5.6,5.6,45,0.00,,SKC,0.00,VWS V14.01,2013-01-01 17:17:00,
2013-01-01 11:22:00,12.9,-4.4,30.23,WSW,238,5.6,5.6,45,0.00,,SKC,0.00,VWS V14.01,2013-01-01 17:22:00,
2013-01-01 11:27:00,12.2,-5.1,30.23,SSW,201,8.9,8.9,45,0.00,,SKC,0.00,VWS V14.01,2013-01-01 17:27:00,
2013-01-01 11:32:00,12.6,-4.7,30.23,South,176,7.2,7.2,45,0.00,,SKC,0.00,VWS V14.01,2013-01-01 17:32:00,
2013-01-01 11:37:00,12.7,-4.6,30.23,SW,214,4.0,5.6,45,0.00,,SKC,0.00,VWS V14.01,2013-01-01 17:37:00,
2013-01-01 11:42:00,13.3,-4.1,30.23,SSW,206,6.4,6.4,45,0.00,,SKC,0.00,VWS V14.01,2013-01-01 17:42:00,
2013-01-01 11:47:00,13.6,-3.8,30.23,SSW,206,6.4,6.4,45,0.00,,SKC,0.00,VWS V14.01,2013-01-01 17:47:00,
2013-01-01 11:52:00,13.6,-4.2,30.23,SSW,206,6.4,6.4,44,0.00,,SKC,0.00,VWS V14.01,2013-01-01 17:52:00,
2013-01-01 11:57:00,14.5,-3.4,30.23,WSW,238,7.2,7.2,44,0.00,,SKC,0.00,VWS V14.01,2013-01-01 17:57:00,
2013-01-01 12:02:00,14.9,-3.1,30.23,WSW,253,6.4,6.4,44,0.00,,SKC,0.00,VWS V14.01,2013-01-01 18:02:00,
2013-01-01 12:07:00,15.1,-2.9,30.23,WSW,239,8.9,8.9,44,0.00,,SKC,0.00,VWS V14.01,2013-01-01 18:07:00,
2013-01-01 12:12:00,15.4,-2.6,30.23,SW,227,6.4,15.7,44,0.00,,SKC,0.00,VWS V14.01,2013-01-01 18:12:00,
2013-01-01 12:17:00,15.8,-2.2,30.23,SW,221,4.8,9.7,44,0.00,,SKC,0.00,VWS V14.01,2013-01-01 18:17:00,
2013-01-01 12:22:00,15.8,-2.2,30.23,SW,217,11.3,11.3,44,0.00,,SKC,0.00,VWS V14.01,2013-01-01 18:22:00,
2013-01-01 12:27:00,14.5,-3.4,30.23,SW,235,7.2,7.2,44,0.00,,SKC,0.00,VWS V14.01,2013-01-01 18:27:00,
2013-01-01 12:32:00,15.1,-2.9,30.23,SW,228,13.7,18.9,44,0.00,,SKC,0.00,VWS V14.01,2013-01-01 18:32:00,
2013-01-01 12:37:00,14.0,-3.9,30.23,West,260,10.5,10.5,44,0.00,,SKC,0.00,VWS V14.01,2013-01-01 18:37:00,
2013-01-01 12:42:00,14.5,-3.4,30.23,SW,232,10.5,14.5,44,0.00,,SKC,0.00,VWS V14.01,2013-01-01 18:42:00,
2013-01-01 12:47:00,15.4,-2.6,30.23,SW,224,6.4,9.7,44,0.00,,SKC,0.00,VWS V14.01,2013-01-01 18:47:00,
2013-01-01 12:52:00,15.3,-2.7,30.23,West,267,7.2,9.7,44,0.00,,SKC,0.00,VWS V14.01,2013-01-01 18:52:00,
2013-01-01 12:57:00,16.0,-2.6,30.23,SW,220,9.7,14.5,43,0.00,,SKC,0.00,VWS V14.01,2013-01-01 18:57:00,
2013-01-01 13:02:00,16.3,-2.2,30.23,SSW,200,8.9,12.1,43,0.00,,SKC,0.00,VWS V14.01,2013-01-01 19:02:00,
2013-01-01 13:07:00,15.8,-2.2,30.20,West,262,8.1,9.7,44,0.00,,SKC,0.00,VWS V14.01,2013-01-01 19:07:00,
2013-01-01 13:12:00,16.7,-1.9,30.20,SW,230,11.3,14.5,43,0.00,,SKC,0.00,VWS V14.01,2013-01-01 19:12:00,
2013-01-01 13:17:00,16.9,-1.7,30.20,SW,222,11.3,14.9,43,0.00,,SKC,0.00,VWS V14.01,2013-01-01 19:17:00,
2013-01-01 13:22:00,15.8,-2.2,30.20,WSW,237,9.7,13.7,44,0.00,,SKC,0.00,VWS V14.01,2013-01-01 19:22:00,
2013-01-01 13:27:00,16.7,-1.4,30.20,WSW,243,6.4,7.2,44,0.00,,SKC,0.00,VWS V14.01,2013-01-01 19:27:00,
2013-01-01 13:32:00,16.5,-2.1,30.20,WSW,244,11.3,11.3,43,0.00,,SKC,0.00,VWS V14.01,2013-01-01 19:32:00,
2013-01-01 13:37:00,16.7,-1.4,30.20,SW,236,11.3,14.9,44,0.00,,SKC,0.00,VWS V14.01,2013-01-01 19:37:00,
2013-01-01 13:42:00,17.1,-1.1,30.20,SSW,207,5.6,7.2,44,0.00,,SKC,0.00,VWS V14.01,2013-01-01 19:42:00,
2013-01-01 13:47:00,16.9,-1.7,30.20,WSW,254,11.3,11.3,43,0.00,,SKC,0.00,VWS V14.01,2013-01-01 19:47:00,
2013-01-01 13:52:00,16.0,-2.6,30.20,WSW,254,11.3,11.3,43,0.00,,SKC,0.00,VWS V14.01,2013-01-01 19:52:00,
2013-01-01 13:57:00,16.2,-1.9,30.20,WSW,254,11.3,11.3,44,0.00,,SKC,0.00,VWS V14.01,2013-01-01 19:57:00,
2013-01-01 14:02:00,17.1,-1.1,30.20,WSW,238,10.5,10.5,44,0.00,,SKC,0.00,VWS V14.01,2013-01-01 20:02:00,
2013-01-01 14:07:00,17.4,-0.8,30.20,SW,227,12.1,12.1,44,0.00,,SKC,0.00,VWS V14.01,2013-01-01 20:07:00,
2013-01-01 14:12:00,16.3,-1.7,30.20,WSW,240,8.9,8.9,44,0.00,,SKC,0.00,VWS V14.01,2013-01-01 20:12:00,
2013-01-01 14:17:00,16.7,-1.4,30.20,SW,216,4.8,13.7,44,0.00,,SKC,0.00,VWS V14.01,2013-01-01 20:17:00,
2013-01-01 14:22:00,17.2,-0.9,30.20,SSW,208,11.3,11.3,44,0.00,,SKC,0.00,VWS V14.01,2013-01-01 20:22:00,
2013-01-01 14:27:00,16.9,-1.2,30.20,SW,221,12.1,12.1,44,0.00,,SKC,0.00,VWS V14.01,2013-01-01 20:27:00,
2013-01-01 14:32:00,16.9,-1.2,30.20,WSW,251,11.3,11.3,44,0.00,,SKC,0.00,VWS V14.01,2013-01-01 20:32:00,
2013-01-01 14:37:00,17.2,-0.9,30.20,SW,214,6.4,6.4,44,0.00,,SKC,0.00,VWS V14.01,2013-01-01 20:37:00,
2013-01-01 14:42:00,17.4,-0.8,30.20,WSW,243,12.1,12.1,44,0.00,,SKC,0.00,VWS V14.01,2013-01-01 20:42:00,
2013-01-01 14:47:00,16.9,-1.2,30.20,SSW,211,11.3,11.3,44,0.00,,SKC,0.00,VWS V14.01,2013-01-01 20:47:00,
2013-01-01 14:52:00,16.2,-1.9,30.20,West,268,5.6,5.6,44,0.00,,SKC,0.00,VWS V14.01,2013-01-01 20:52:00,
2013-01-01 14:57:00,16.2,-1.9,30.20,SW,226,5.6,5.6,44,0.00,,SKC,0.00,VWS V14.01,2013-01-01 20:57:00,
2013-01-01 15:02:00,16.2,-1.9,30.20,SSW,213,6.4,6.4,44,0.00,,SKC,0.00,VWS V14.01,2013-01-01 21:02:00,
2013-01-01 15:07:00,16.2,-1.9,30.20,SW,224,6.4,6.4,44,0.00,,SKC,0.00,VWS V14.01,2013-01-01 21:07:00,
2013-01-01 15:13:00,15.4,-2.6,30.20,WSW,257,5.6,5.6,44,0.00,,SKC,0.00,VWS V14.01,2013-01-01 21:13:00,
2013-01-01 15:18:00,15.8,-2.2,30.20,SW,220,7.2,7.2,44,0.00,,SKC,0.00,VWS V14.01,2013-01-01 21:18:00,
2013-01-01 15:23:00,15.6,-2.4,30.20,SW,219,11.3,11.3,44,0.00,,SKC,0.00,VWS V14.01,2013-01-01 21:23:00,
2013-01-01 15:28:00,15.6,-2.4,30.20,SW,225,8.9,10.5,44,0.00,,SKC,0.00,VWS V14.01,2013-01-01 21:28:00,
2013-01-01 15:33:00,15.4,-2.6,30.20,WSW,249,7.2,14.5,44,0.00,,SKC,0.00,VWS V14.01,2013-01-01 21:33:00,
2013-01-01 15:38:00,15.4,-2.1,30.17,WSW,252,14.5,14.5,45,0.00,,SKC,0.00,VWS V14.01,2013-01-01 21:38:00,
2013-01-01 15:43:00,15.3,-2.3,30.17,West,261,5.6,8.9,45,0.00,,SKC,0.00,VWS V14.01,2013-01-01 21:43:00,
2013-01-01 15:48:00,15.1,-2.9,30.17,SW,223,5.6,10.5,44,0.00,,SKC,0.00,VWS V14.01,2013-01-01 21:48:00,
2013-01-01 15:53:00,14.5,-3.4,30.17,SW,224,4.8,7.2,44,0.00,,SKC,0.00,VWS V14.01,2013-01-01 21:53:00,
2013-01-01 15:58:00,14.2,-3.2,30.17,SW,225,8.9,11.3,45,0.00,,SKC,0.00,VWS V14.01,2013-01-01 21:58:00,
2013-01-01 16:03:00,14.4,-3.1,30.17,SSW,211,4.8,6.4,45,0.00,,SKC,0.00,VWS V14.01,2013-01-01 22:03:00,
2013-01-01 16:08:00,14.0,-3.4,30.17,SW,223,4.8,8.9,45,0.00,,SKC,0.00,VWS V14.01,2013-01-01 22:08:00,
2013-01-01 16:13:00,14.0,-3.0,30.17,SW,232,10.5,13.7,46,0.00,,SKC,0.00,VWS V14.01,2013-01-01 22:13:00,
2013-01-01 16:18:00,13.8,-3.1,30.17,SW,225,13.7,14.9,46,0.00,,SKC,0.00,VWS V14.01,2013-01-01 22:18:00,
2013-01-01 16:23:00,13.8,-3.1,30.17,WSW,247,10.5,10.5,46,0.00,,SKC,0.00,VWS V14.01,2013-01-01 22:23:00,
2013-01-01 16:28:00,13.8,-3.1,30.17,SW,233,8.9,12.9,46,0.00,,SKC,0.00,VWS V14.01,2013-01-01 22:28:00,
2013-01-01 16:33:00,13.8,-3.1,30.17,SW,224,7.2,7.2,46,0.00,,SKC,0.00,VWS V14.01,2013-01-01 22:33:00,
2013-01-01 16:38:00,13.6,-3.3,30.17,SW,223,8.9,11.3,46,0.00,,SKC,0.00,VWS V14.01,2013-01-01 22:38:00,
2013-01-01 16:43:00,13.5,-3.5,30.17,SW,234,8.9,8.9,46,0.00,,SKC,0.00,VWS V14.01,2013-01-01 22:43:00,
2013-01-01 16:48:00,13.5,-3.5,30.17,SW,229,5.6,6.4,46,0.00,,SKC,0.00,VWS V14.01,2013-01-01 22:48:00,
2013-01-01 16:53:00,13.5,-3.5,30.17,WSW,241,4.8,5.6,46,0.00,,SKC,0.00,VWS V14.01,2013-01-01 22:53:00,
2013-01-01 16:58:00,13.5,-3.5,30.17,WSW,248,0.0,4.0,46,0.00,,SKC,0.00,VWS V14.01,2013-01-01 22:58:00,
2013-01-01 17:03:00,13.5,-3.5,30.17,WSW,250,12.9,12.9,46,0.00,,SKC,0.00,VWS V14.01,2013-01-01 23:03:00,
2013-01-01 17:08:00,13.5,-3.5,30.17,SW,233,5.6,10.5,46,0.00,,SKC,0.00,VWS V14.01,2013-01-01 23:08:00,
2013-01-01 17:13:00,13.5,-3.5,30.17,SW,232,4.8,7.2,46,0.00,,SKC,0.00,VWS V14.01,2013-01-01 23:13:00,
2013-01-01 17:18:00,13.5,-3.5,30.17,SW,234,8.9,8.9,46,0.00,,SKC,0.00,VWS V14.01,2013-01-01 23:18:00,
2013-01-01 17:23:00,13.5,-3.5,30.17,WSW,242,5.6,7.2,46,0.00,,SKC,0.00,VWS V14.01,2013-01-01 23:23:00,
2013-01-01 17:28:00,13.5,-3.5,30.17,WSW,238,6.4,10.5,46,0.00,,SKC,0.00,VWS V14.01,2013-01-01 23:28:00,
2013-01-01 17:33:00,13.5,-3.5,30.17,SW,232,11.3,11.3,46,0.00,,SKC,0.00,VWS V14.01,2013-01-01 23:33:00,
2013-01-01 17:38:00,13.6,-3.3,30.17,SW,230,10.5,10.5,46,0.00,,SKC,0.00,VWS V14.01,2013-01-01 23:38:00,
2013-01-01 17:43:00,13.6,-3.3,30.17,SW,234,14.9,14.9,46,0.00,,SKC,0.00,VWS V14.01,2013-01-01 23:43:00,
2013-01-01 17:48:00,13.6,-3.3,30.17,SSW,208,5.6,5.6,46,0.00,,SKC,0.00,VWS V14.01,2013-01-01 23:48:00,
2013-01-01 17:53:00,13.6,-3.3,30.17,SW,227,4.8,6.4,46,0.00,,SKC,0.00,VWS V14.01,2013-01-01 23:53:00,
2013-01-01 17:58:00,13.5,-3.5,30.17,SW,224,0.0,0.0,46,0.00,,SKC,0.00,VWS V14.01,2013-01-01 23:58:00,
2013-01-01 18:03:00,13.6,-3.3,30.17,SSW,210,0.0,7.2,46,0.00,,SKC,0.00,VWS V14.01,2013-01-02 00:03:00,
2013-01-01 18:08:00,13.6,-3.3,30.17,SSW,211,9.7,15.7,46,0.00,,SKC,0.00,VWS V14.01,2013-01-02 00:08:00,
2013-01-01 18:13:00,13.6,-3.3,30.17,SW,233,4.8,5.6,46,0.00,,SKC,0.00,VWS V14.01,2013-01-02 00:13:00,
2013-01-01 18:18:00,13.6,-3.3,30.14,WSW,239,8.9,11.3,46,0.00,,SKC,0.00,VWS V14.01,2013-01-02 00:18:00,
2013-01-01 18:23:00,13.6,-3.3,30.14,SW,225,0.0,7.2,46,0.00,,SKC,0.00,VWS V14.01,2013-01-02 00:23:00,
2013-01-01 18:28:00,13.6,-3.3,30.14,SW,223,11.3,13.7,46,0.00,,SKC,0.00,VWS V14.01,2013-01-02 00:28:00,
2013-01-01 18:33:00,13.8,-3.1,30.14,SW,235,4.0,8.9,46,0.00,,SKC,0.00,VWS V14.01,2013-01-02 00:33:00,
2013-01-01 18:38:00,13.8,-3.1,30.14,WSW,248,12.9,12.9,46,0.00,,SKC,0.00,VWS V14.01,2013-01-02 00:38:00,
2013-01-01 18:43:00,14.0,1.2,30.14,SSW,204,5.6,5.6,56,0.00,,SKC,0.00,VWS V14.01,2013-01-02 00:43:00,
2013-01-01 18:48:00,14.2,1.4,30.14,SSW,213,6.4,7.2,56,0.00,,SKC,0.00,VWS V14.01,2013-01-02 00:48:00,
2013-01-01 18:53:00,14.2,1.4,30.14,SW,229,0.0,0.0,56,0.00,,SKC,0.00,VWS V14.01,2013-01-02 00:53:00,
2013-01-01 18:58:00,14.2,1.4,30.14,WSW,244,0.0,6.4,56,0.00,,SKC,0.00,VWS V14.01,2013-01-02 00:58:00,
2013-01-01 19:03:00,14.2,1.4,30.14,WSW,237,5.6,11.3,56,0.00,,SKC,0.00,VWS V14.01,2013-01-02 01:03:00,
2013-01-01 19:08:00,14.2,1.4,30.14,SSW,207,9.7,13.7,56,0.00,,SKC,0.00,VWS V14.01,2013-01-02 01:08:00,
2013-01-01 19:13:00,14.2,1.4,30.14,SW,232,0.0,0.0,56,0.00,,SKC,0.00,VWS V14.01,2013-01-02 01:13:00,
2013-01-01 19:18:00,14.2,1.4,30.14,WSW,247,0.0,8.9,56,0.00,,SKC,0.00,VWS V14.01,2013-01-02 01:18:00,
2013-01-01 19:23:00,14.2,1.4,30.14,WSW,241,0.0,6.4,56,0.00,,SKC,0.00,VWS V14.01,2013-01-02 01:23:00,
2013-01-01 19:28:00,14.4,1.5,30.14,SW,224,0.0,9.7,56,0.00,,SKC,0.00,VWS V14.01,2013-01-02 01:28:00,
2013-01-01 19:33:00,14.4,1.5,30.14,SSW,192,0.0,0.0,56,0.00,,SKC,0.00,VWS V14.01,2013-01-02 01:33:00,
2013-01-01 19:38:00,14.4,1.5,30.14,SW,222,0.0,0.0,56,0.00,,SKC,0.00,VWS V14.01,2013-01-02 01:38:00,
2013-01-01 19:43:00,14.4,1.5,30.14,SSW,203,8.9,8.9,56,0.00,,SKC,0.00,VWS V14.01,2013-01-02 01:43:00,
2013-01-01 19:48:00,14.4,1.5,30.14,SW,226,0.0,0.0,56,0.00,,SKC,0.00,VWS V14.01,2013-01-02 01:48:00,
2013-01-01 19:53:00,14.5,2.1,30.14,SSW,200,0.0,0.0,57,0.00,,SKC,0.00,VWS V14.01,2013-01-02 01:53:00,
2013-01-01 19:58:00,14.5,2.5,30.14,SW,216,0.0,0.0,58,0.00,,SKC,0.00,VWS V14.01,2013-01-02 01:58:00,
2013-01-01 20:03:00,14.5,2.5,30.14,South,189,4.8,4.8,58,0.00,,SKC,0.00,VWS V14.01,2013-01-02 02:03:00,
2013-01-01 20:08:00,14.7,2.6,30.14,SSW,199,0.0,0.0,58,0.00,,SKC,0.00,VWS V14.01,2013-01-02 02:08:00,
2013-01-01 20:13:00,14.7,2.3,30.14,SW,215,0.0,0.0,57,0.00,,SKC,0.00,VWS V14.01,2013-01-02 02:13:00,
2013-01-01 20:18:00,14.7,2.3,30.14,SSW,210,0.0,0.0,57,0.00,,SKC,0.00,VWS V14.01,2013-01-02 02:18:00,
2013-01-01 20:23:00,14.9,2.4,30.14,South,189,6.4,6.4,57,0.00,,SKC,0.00,VWS V14.01,2013-01-02 02:23:00,
2013-01-01 20:28:00,14.9,2.4,30.14,WSW,238,0.0,0.0,57,0.00,,SKC,0.00,VWS V14.01,2013-01-02 02:28:00,
2013-01-01 20:33:00,14.9,2.4,30.11,SW,219,0.0,0.0,57,0.00,,SKC,0.00,VWS V14.01,2013-01-02 02:33:00,
2013-01-01 20:39:00,14.9,2.4,30.11,SW,226,0.0,0.0,57,0.00,,SKC,0.00,VWS V14.01,2013-01-02 02:39:00,
2013-01-01 20:44:00,15.1,3.0,30.11,SW,231,0.0,0.0,58,0.00,,SKC,0.00,VWS V14.01,2013-01-02 02:44:00,
2013-01-01 20:49:00,15.1,3.0,30.11,SW,231,0.0,0.0,58,0.00,,SKC,0.00,VWS V14.01,2013-01-02 02:49:00,
2013-01-01 20:54:00,15.1,3.0,30.11,SSW,208,5.6,5.6,58,0.00,,SKC,0.00,VWS V14.01,2013-01-02 02:54:00,
2013-01-01 20:59:00,15.1,3.0,30.11,South,190,0.0,0.0,58,0.00,,SKC,0.00,VWS V14.01,2013-01-02 02:59:00,
2013-01-01 21:04:00,15.1,3.0,30.11,South,189,7.2,8.9,58,0.00,,SKC,0.00,VWS V14.01,2013-01-02 03:04:00,
2013-01-01 21:09:00,14.9,2.8,30.11,SSW,202,4.8,6.4,58,0.00,,SKC,0.00,VWS V14.01,2013-01-02 03:09:00,
2013-01-01 21:14:00,14.9,3.2,30.11,SSW,195,0.0,0.0,59,0.00,,SKC,0.00,VWS V14.01,2013-01-02 03:14:00,
2013-01-01 21:19:00,14.5,2.5,30.11,SW,219,5.6,5.6,58,0.00,,SKC,0.00,VWS V14.01,2013-01-02 03:19:00,
2013-01-01 21:24:00,14.2,2.1,30.11,SSW,207,0.0,0.0,58,0.00,,SKC,0.00,VWS V14.01,2013-01-02 03:24:00,
2013-01-01 21:29:00,13.6,2.0,30.11,SSW,205,0.0,0.0,59,0.00,,SKC,0.00,VWS V14.01,2013-01-02 03:29:00,
2013-01-01 21:34:00,12.9,1.3,30.11,SW,225,0.0,0.0,59,0.00,,SKC,0.00,VWS V14.01,2013-01-02 03:34:00,
2013-01-01 21:39:00,12.6,1.0,30.11,SW,214,0.0,0.0,59,0.00,,SKC,0.00,VWS V14.01,2013-01-02 03:39:00,
2013-01-01 21:44:00,12.0,0.4,30.11,SSW,207,0.0,4.8,59,0.00,,SKC,0.00,VWS V14.01,2013-01-02 03:44:00,
2013-01-01 21:49:00,12.0,0.4,30.11,WSW,248,0.0,0.0,59,0.00,,SKC,0.00,VWS V14.01,2013-01-02 03:49:00,
2013-01-01 21:54:00,11.7,0.1,30.11,SW,221,0.0,0.0,59,0.00,,SKC,0.00,VWS V14.01,2013-01-02 03:54:00,
2013-01-01 21:59:00,11.5,-0.1,30.11,SSW,205,4.8,4.8,59,0.00,,SKC,0.00,VWS V14.01,2013-01-02 03:59:00,
2013-01-01 22:04:00,11.3,-0.2,30.11,SSW,211,0.0,0.0,59,0.00,,SKC,0.00,VWS V14.01,2013-01-02 04:04:00,
2013-01-01 22:09:00,11.1,-0.4,30.11,SW,217,4.0,5.6,59,0.00,,SKC,0.00,VWS V14.01,2013-01-02 04:09:00,
2013-01-01 22:14:00,10.9,-0.6,30.11,SSW,201,0.0,0.0,59,0.00,,SKC,0.00,VWS V14.01,2013-01-02 04:14:00,
2013-01-01 22:19:00,10.9,-0.6,30.11,South,176,4.8,4.8,59,0.00,,SKC,0.00,VWS V14.01,2013-01-02 04:19:00,
2013-01-01 22:24:00,10.8,-0.7,30.11,SW,222,0.0,4.0,59,0.00,,SKC,0.00,VWS V14.01,2013-01-02 04:24:00,
2013-01-01 22:29:00,10.4,-1.1,30.11,SSW,204,0.0,0.0,59,0.00,,SKC,0.00,VWS V14.01,2013-01-02 04:29:00,
2013-01-01 22:34:00,10.2,-1.2,30.11,SSW,211,0.0,0.0,59,0.00,,SKC,0.00,VWS V14.01,2013-01-02 04:34:00,
2013-01-01 22:39:00,10.2,-1.2,30.11,SSW,210,0.0,0.0,59,0.00,,SKC,0.00,VWS V14.01,2013-01-02 04:39:00,
2013-01-01 22:44:00,10.2,-1.2,30.11,SW,223,6.4,6.4,59,0.00,,SKC,0.00,VWS V14.01,2013-01-02 04:44:00,
2013-01-01 22:49:00,10.0,-1.4,30.11,SSW,197,0.0,4.8,59,0.00,,SKC,0.00,VWS V14.01,2013-01-02 04:49:00,
2013-01-01 22:54:00,9.9,-1.6,30.11,South,191,0.0,0.0,59,0.00,,SKC,0.00,VWS V14.01,2013-01-02 04:54:00,
2013-01-01 22:59:00,9.7,-1.8,30.11,SSW,208,0.0,0.0,59,0.00,,SKC,0.00,VWS V14.01,2013-01-02 04:59:00,
2013-01-01 23:00:00,9.7,-1.8,30.11,SSW,208,0.0,0.0,59,0.00,,SKC,0.00,VWS V14.01,2013-01-02 05:00:00,
2013-01-01 23:02:00,9.5,-1.9,30.11,SW,220,0.0,6.4,59,0.00,,SKC,0.00,VWS V14.01,2013-01-02 05:02:00,
2013-01-01 23:03:00,9.5,-1.9,30.11,South,187,6.4,6.4,59,0.00,,SKC,0.00,VWS V14.01,2013-01-02 05:03:00,
2013-01-01 23:09:00,9.5,-1.9,30.11,SW,225,4.8,4.8,59,0.00,,SKC,0.00,VWS V14.01,2013-01-02 05:09:00,
2013-01-01 23:10:00,9.3,-2.1,30.11,SSW,204,4.8,6.4,59,0.00,,SKC,0.00,VWS V14.01,2013-01-02 05:10:00,
2013-01-01 23:16:00,9.1,-2.3,30.11,SSE,153,0.0,5.6,59,0.00,,SKC,0.00,VWS V14.01,2013-01-02 05:16:00,
2013-01-01 23:22:00,9.0,-2.4,30.08,South,183,0.0,5.6,59,0.00,,SKC,0.00,VWS V14.01,2013-01-02 05:22:00,
2013-01-01 23:27:00,8.8,-2.6,30.08,SSW,201,0.0,0.0,59,0.00,,SKC,0.00,VWS V14.01,2013-01-02 05:27:00,
2013-01-01 23:32:00,8.4,-3.0,30.08,SSW,195,0.0,0.0,59,0.00,,SKC,0.00,VWS V14.01,2013-01-02 05:32:00,
2013-01-01 23:37:00,8.2,-3.1,30.08,SSW,203,6.4,8.9,59,0.00,,SKC,0.00,VWS V14.01,2013-01-02 05:37:00,
2013-01-01 23:42:00,8.1,-3.3,30.08,South,189,4.8,5.6,59,0.00,,SKC,0.00,VWS V14.01,2013-01-02 05:42:00,
2013-01-01 23:47:00,7.9,-3.5,30.08,SSW,196,4.0,9.7,59,0.00,,SKC,0.00,VWS V14.01,2013-01-02 05:47:00,
2013-01-01 23:52:00,7.7,-3.6,30.08,SSW,198,8.9,8.9,59,0.00,,SKC,0.00,VWS V14.01,2013-01-02 05:52:00,
2013-01-01 23:58:00,7.5,-3.8,30.08,SSW,196,4.8,9.7,59,0.00,,SKC,0.00,VWS V14.01,2013-01-02 05:58:00,